VV700 KNDZ-KNDZ

Flight info

Callsign VV700
Flight time N/A
Altitude 2000
Route VFR DCT
Aircraft H60/L-V/N

Departure

Time 2026-04-15 10:30
Airport Whiting Field Naval Air Station South Airport (KNDZ)

Arrival

Time N/A
Airport Whiting Field Naval Air Station South Airport (KNDZ)
Time Latitude Longitude Altitude Speed Heading
2026-04-15 10:22 30.70215 -87.01571 179 ft 0 kts
2026-04-15 10:28 30.70218 -87.01569 184 ft 3 kts
2026-04-15 10:29 30.70215 -87.01572 186 ft 2 kts 20°
2026-04-15 10:29 30.70204 -87.01585 194 ft 1 kts
2026-04-15 10:29 30.70213 -87.01592 198 ft 5 kts 79°
2026-04-15 10:29 30.70258 -87.01442 239 ft 25 kts 77°
2026-04-15 10:30 30.70515 -87.01301 281 ft 59 kts 36°
2026-04-15 10:30 30.70966 -87.01337 525 ft 71 kts 356°
2026-04-15 10:30 30.71434 -87.01316 765 ft 66 kts
2026-04-15 10:30 30.71968 -87.01205 918 ft 89 kts 15°
2026-04-15 10:31 30.72562 -87.00917 1141 ft 97 kts 28°
2026-04-15 10:31 30.73188 -87.00538 1337 ft 103 kts 30°
2026-04-15 10:31 30.73832 -87.00156 1513 ft 106 kts 30°
2026-04-15 10:31 30.74502 -86.99760 1531 ft 114 kts 30°
2026-04-15 10:32 30.75233 -86.99317 1352 ft 120 kts 30°
2026-04-15 10:32 30.75976 -86.98860 1206 ft 122 kts 30°
2026-04-15 10:32 30.76738 -86.98383 1172 ft 125 kts 30°
2026-04-15 10:32 30.77499 -86.97910 1182 ft 124 kts 30°
2026-04-15 10:33 30.78270 -86.97447 1162 ft 124 kts 28°
2026-04-15 10:33 30.79071 -86.97049 1180 ft 126 kts 22°
2026-04-15 10:33 30.79929 -86.96821 1185 ft 126 kts
2026-04-15 10:33 30.80503 -86.96820 1182 ft 125 kts 356°